Location: Unspecified
(0.0000°N, 0.0000°E)
Time: 11:27:08
(UTC+00:00)

Explorer 11/Cluster Stage 4 - Pass Details

Date: 01 October 2020
Orbit: 467 x 1258 km, 28.8° (Epoch: 28 October)

Event Time Altitude Azimuth Distance (km) Brightness Sun altitude
Rises 04:09:10 0° 332° (NNW) 3,831 - -25.1°
Exits shadow 04:11:17 - 342° (NNW) 3,393 9.6 -24.5°
Reaches altitude 10° 04:13:40 10° 357° (N) 3,029 9.5 -23.9°
Maximum altitude 04:17:06 13° 24° (NNE) 2,863 9.7 -23.1°
Drops below altitude 10° 04:20:40 10° 51° (NE) 3,183 10.3 -22.2°
Sets 04:25:37 0° 75° (ENE) 4,194 11.6 -21.0°
